Find STARLINK-37565

NORAD ID: 799500909 Int'l Des: 2026-127R Constellation: starlink operational

現在のビュー

3D地球を読み込み中...

STARLINK-37565について

説明を読み込み中...

次回通過

Passes for default location (London). Set your location on the main map for personalized predictions.

高度履歴

Loading altitude history...

軌道要素

1 99999C 2026127R 26159.90118056 .00877300 00000-0 895660-4 0 1599
2 99999 53.1616 304.9538 0008897 292.0622 318.1271 16.09548673 19
Epoch: Jun 8, 2026 • Age: 4 hours